ONEWEB-0193, 48238

Orbit data source: Space-Track

ONEWEB-0193, 48238 is a payload satellite owned by One Web (NAA) (UK) in LEO that was launched on Sun, 25 Apr 2021 UTC via a SOYUZ-2-1B launch vehicle from the Vostochny Cosmodrome (VOSTO). Payload-class satellites include a variety of spacecraft equipped with specific instruments for various scientific and technological missions. These include communications satellites like Starlink; space stations such as the ISS; scientific satellites like the Hubble; Earth observation satellites from companies like Planet Labs, Umbra, and HawkEye 360; GPS; miniature CubeSats for education and research; and military/defense satellites.

Loading next visibility...
Identifier
48238, 2021-031AE
Orbit
LEO
Country
Flag of UKUK
Related business
Manufacturer
One Web
Mission
Operational Commercial Communications
Bus & Motor
ARROW, Unknown motor
Mass
148 kg wet, ~140 kg dry
Launch date (UTC)
2021-04-25 (5 years ago)
Launch vehicle
SOYUZ-2-1B
Launch site
Vostochny Cosmodrome (VOSTO)
Object type
Payload
Rocket body
Debris
Shape & HBR
Trap Box + 2 Pan, 6.7 m
Radar Cross Section
3.464 m², Large (>1 m²)

Expand to show TLE details & history
Last TLE update: 20 hours ago

TLE from 20 hours ago
0 ONEWEB-0193
1 48238U 21031AE  26094.08306543 -.00000103  00000-0 -31213-3 0  9991
2 48238  87.8939 304.4909 0002008  97.3505 262.7853 13.14501305238570
Epoch: 2026-04-04T01:59Z
TLE epoch observation values (Epoch: 2026-04-04T01:59:36.853Z)
Latitude
-0°
Longitude
82.17941°
Altitude
1,208.881 km
Speed
7.25 km/s
True Right ascension
20h 17m 57s
True Declination
0° 00' 00"
Sunlit
Object was in daylight at epoch
Visualization orbit readout
Latitude
Unknown
Longitude
Unknown
Altitude
Unknown
Speed
Unknown
Apparent Right ascension
Unknown
Apparent Declination
Unknown
Sunlit
N/A
Visualization observer readout
Local Sidereal Time
04:08:07
Azimuth
Unknown
Elevation
Unknown
Doppler factor
Unknown
Orbital elements
Apogee altitude
1,204.432 km
Perigee altitude
1,201.387 km
Semi-major axis
7,581.047 km
Eccentricity
0.0002
Inclination
87.8939°
RAAN
304.4909°
Arg. of periapsis
97.3505°
True anomaly
262.76247°
Mean anomaly
262.7853°
Eccentric anomaly
262.77389°
Mean motion
3.28813 °/min
Orbital period
109.48 mins
BSTAR
-0.00031213
Loading maneuver chart data...
Computing Atmospheric mass density...
Loading historical data...
Loading historical data...
Loading historical data...
Loading historical data...
Loading historical data...
Loading historical data...
Loading historical data...

Documentation

Showing up to 5 results
|